Date,TemperatureHighF,TemperatureAvgF,TemperatureLowF,DewpointHighF,DewpointAvgF,DewpointLowF,HumidityHigh,HumidityAvg,HumidityLow,PressureMaxIn,PressureMinIn,WindSpeedMaxMPH,WindSpeedAvgMPH,GustSpeedMaxMPH,PrecipitationSumIn
2013-1-1,33.1,22.0,6.6,27.6,14.4,2.0,84,73,61,29.99,29.83,24,8,25,0.00
2013-1-2,29.3,22.3,14.7,18.3,14.7,10.5,83,73,62,30.13,29.95,19,6,24,0.00
2013-1-3,30.9,23.9,13.3,25.9,19.4,8.4,88,83,77,30.12,29.91,24,7,29,0.00
2013-1-4,34.3,30.3,25.5,26.5,23.9,19.8,84,77,72,30.00,29.84,48,16,55,0.02
2013-1-5,38.8,31.4,28.8,29.1,25.2,23.0,82,78,67,30.23,29.99,19,9,25,0.02
2013-1-6,35.8,34.5,31.8,33.0,31.5,26.1,91,89,78,30.06,29.84,21,10,31,0.09
2013-1-7,34.3,30.1,24.6,29.6,24.4,20.5,88,79,67,30.34,30.06,25,10,36,0.00
2013-1-8,39.6,32.3,25.0,32.3,27.1,22.6,92,81,74,30.25,30.09,20,8,26,0.00
2013-1-9,45.7,36.7,23.4,36.5,29.8,20.3,89,77,64,30.31,29.92,42,12,49,0.02
2013-1-10,47.8,37.0,31.1,30.7,27.8,25.1,83,70,50,30.54,30.31,15,3,19,0.00
2013-1-11,50.5,42.4,34.0,45.4,37.1,27.0,88,81,72,30.31,29.81,23,7,31,0.04
2013-1-12,60.6,51.6,43.7,51.6,47.1,41.5,93,85,72,29.96,29.88,24,9,36,0.00
2013-1-13,64.2,53.4,46.0,56.7,49.9,44.1,96,88,75,29.91,29.69,29,9,40,0.55
2013-1-14,46.0,32.8,25.0,44.7,27.1,19.4,95,79,70,30.33,29.72,27,8,30,0.08
2013-1-15,36.1,28.5,24.4,23.8,21.5,18.9,83,75,56,30.35,30.10,12,3,16,0.00
2013-1-16,41.2,32.5,27.3,31.4,26.0,22.4,85,77,67,30.11,29.73,25,8,32,0.00
2013-1-17,35.2,25.1,15.1,27.8,18.4,11.3,86,76,69,30.12,29.80,18,9,30,0.00
2013-1-18,33.4,22.3,13.6,22.2,13.8,7.6,88,71,54,30.37,29.94,31,10,38,0.02
2013-1-19,46.9,41.7,33.1,31.9,28.0,22.0,68,58,49,29.95,29.53,40,17,43,0.00
2013-1-20,47.1,29.4,18.3,34.9,18.5,8.4,88,64,49,30.03,29.43,44,17,60,0.00
2013-1-21,21.4,17.7,11.1,13.9,8.7,0.5,84,68,54,30.01,29.81,18,6,24,0.00
2013-1-22,12.7,8.9,5.5,0.2,-2.4,-4.8,66,60,53,30.12,29.85,26,11,35,0.00
2013-1-23,16.7,11.0,4.5,4.3,0.6,-3.2,78,63,51,30.15,30.03,13,5,20,0.00
2013-1-24,16.5,10.1,-3.3,11.0,3.1,-8.8,85,73,61,30.45,30.02,19,3,24,0.00
2013-1-25,18.5,9.8,-2.6,10.3,4.2,-7.8,83,78,64,30.43,30.01,11,3,13,0.00
2013-1-26,30.6,16.0,2.7,20.7,9.7,-1.4,86,77,56,30.33,30.02,6,1,8,0.04
2013-1-27,35.8,19.9,3.0,22.3,12.8,-0.8,85,75,53,30.48,30.26,9,2,12,0.00
2013-1-28,41.2,34.2,24.1,40.1,31.6,16.6,96,91,72,30.26,29.79,19,6,28,0.10
2013-1-29,55.2,42.1,34.3,53.6,40.8,32.7,97,95,94,29.98,29.64,19,6,25,0.61
2013-1-30,64.0,57.6,50.7,55.9,51.8,48.0,94,81,68,29.64,29.02,32,16,42,0.45
2013-1-31,50.5,29.1,21.7,47.7,21.4,10.7,92,73,48,29.67,29.02,35,16,48,0.12
2013-2-1,22.8,19.2,16.5,16.4,12.7,7.3,89,76,64,30.12,29.67,21,10,28,0.00
2013-2-2,21.4,18.0,14.7,16.7,12.9,5.7,88,80,67,30.11,29.90,27,8,32,0.00
2013-2-3,28.0,17.5,1.2,23.0,12.6,-1.9,89,82,62,29.90,29.74,16,3,17,0.05
2013-2-4,22.6,16.3,9.7,12.1,9.3,5.1,84,74,58,29.91,29.81,21,6,22,0.00
2013-2-5,31.6,21.3,11.8,21.4,14.7,7.9,88,76,55,29.88,29.77,18,4,22,0.06
2013-2-6,29.1,22.6,10.2,22.9,13.8,3.5,84,70,47,30.29,29.81,20,7,26,0.00
2013-2-7,31.5,23.4,9.7,20.7,16.0,5.0,83,73,62,30.30,30.00,23,9,24,0.00
2013-2-8,32.7,25.5,17.4,30.6,22.6,14.9,92,89,79,30.08,29.71,30,10,32,0.02
2013-2-9,25.0,15.8,1.2,18.6,12.4,-2.1,91,86,76,30.34,30.08,13,5,16,0.00
2013-2-10,41.7,20.8,-4.7,27.0,12.8,-8.2,87,73,43,30.32,29.86,14,5,16,0.06
2013-2-11,49.8,38.8,33.1,42.9,32.1,24.9,92,77,55,29.85,29.54,35,15,50,0.12
2013-2-12,34.7,32.6,30.4,28.9,26.2,23.8,83,77,70,29.96,29.67,28,11,41,0.00
2013-2-13,44.4,30.2,17.8,27.1,22.2,14.2,87,73,48,29.89,29.72,12,3,14,0.00
2013-2-14,40.6,30.8,17.4,34.5,25.8,14.4,92,82,61,29.88,29.74,29,7,34,0.10
2013-2-15,37.2,31.1,19.4,32.5,22.8,13.3,83,72,59,30.05,29.75,34,11,40,0.00
2013-2-16,32.4,22.9,14.7,20.1,15.7,10.2,87,75,52,30.05,29.90,16,3,16,0.00
2013-2-17,20.3,15.5,12.6,17.5,9.1,4.2,89,76,63,30.19,29.90,24,10,28,0.00
2013-2-18,32.2,22.2,4.5,21.0,12.3,0.1,84,66,49,30.24,29.83,17,5,18,0.00
2013-2-19,41.9,33.6,23.7,36.9,26.5,17.8,89,76,61,29.83,29.54,37,14,45,0.33
2013-2-20,23.7,21.1,18.9,18.2,13.9,11.3,87,74,62,30.07,29.75,30,13,36,0.00
2013-2-21,23.9,19.9,15.1,16.1,13.2,9.6,84,75,67,30.37,30.05,28,9,28,0.00
2013-2-22,34.3,28.0,20.3,29.9,23.0,15.9,90,82,69,30.35,29.95,26,9,29,0.00
2013-2-23,38.8,33.6,28.6,32.9,28.2,23.2,85,81,72,29.95,29.86,24,8,24,0.00
2013-2-24,33.4,30.7,28.2,27.2,25.0,23.4,86,79,71,30.06,29.83,17,7,23,0.00
2013-2-25,36.3,31.9,25.7,28.8,26.5,22.3,88,80,70,30.21,30.06,10,3,14,0.00
2013-2-26,44.4,34.0,23.7,32.5,26.8,20.9,93,76,52,30.19,29.69,31,12,34,0.77
2013-2-27,34.9,33.6,32.4,33.3,31.8,30.8,94,93,91,29.70,29.56,24,6,37,0.33
2013-2-28,36.3,33.5,31.6,34.4,31.7,29.6,95,93,88,29.75,29.52,18,5,20,0.25
2013-3-1,31.6,28.3,24.6,29.6,23.8,19.9,92,83,76,29.95,29.75,24,10,24,0.00
2013-3-2,25.7,23.7,20.8,20.4,18.6,16.2,84,81,76,29.95,29.88,17,8,21,0.00
2013-3-3,25.5,22.8,20.3,20.8,18.3,15.3,91,83,74,29.91,29.85,17,8,20,0.00
2013-3-4,31.5,25.7,20.3,22.5,19.3,15.9,88,77,61,30.05,29.91,19,8,23,0.02
2013-3-5,37.4,27.4,19.0,25.8,21.0,15.2,86,77,59,30.08,29.93,20,5,23,0.02
2013-3-6,45.1,34.0,25.3,35.3,28.7,21.4,89,81,65,30.13,29.92,17,8,19,0.00
2013-3-7,42.1,34.2,28.6,33.1,29.7,24.7,92,84,65,30.27,30.12,13,3,16,0.00
2013-3-8,45.5,34.7,25.3,30.1,26.2,21.6,93,73,49,30.38,30.26,21,4,23,0.02
2013-3-9,50.9,35.2,22.8,36.8,28.9,20.0,92,79,51,30.39,30.15,11,3,14,0.02
2013-3-10,68.2,51.0,34.3,37.5,32.0,26.2,76,51,32,30.15,29.93,25,7,29,0.00
2013-3-11,65.8,54.4,45.7,42.4,34.3,31.2,87,48,34,29.93,29.62,26,10,32,0.10
2013-3-12,46.0,37.8,33.6,42.7,32.2,27.4,88,80,71,29.88,29.68,32,12,32,0.04
2013-3-13,37.8,30.9,22.1,31.0,25.1,14.7,89,79,65,29.97,29.81,26,10,31,0.10
2013-3-14,34.3,26.6,20.5,15.9,13.4,8.5,81,59,38,30.07,29.97,29,12,36,0.00
2013-3-15,39.9,31.5,23.5,31.7,24.3,14.6,85,75,57,30.03,29.74,29,8,29,0.00
2013-3-16,30.4,26.5,18.1,22.6,18.4,13.4,83,71,65,29.98,29.82,14,5,18,0.02
2013-3-17,33.1,25.3,17.8,22.0,16.0,9.0,88,69,44,30.30,29.97,18,4,22,0.00
2013-3-18,34.9,26.9,17.2,31.2,19.1,9.8,91,73,46,30.29,29.63,26,11,35,0.00
2013-3-19,36.1,31.6,24.4,33.6,25.3,18.5,92,78,60,29.83,29.61,32,14,39,0.02
2013-3-20,35.4,27.1,22.6,22.3,19.4,14.5,88,73,51,29.83,29.78,19,8,26,0.02
2013-3-21,31.1,25.3,16.7,24.9,18.4,12.1,90,76,52,29.81,29.70,24,7,27,0.00
2013-3-22,33.4,28.7,24.6,26.9,24.2,21.8,90,83,70,29.93,29.74,19,8,21,0.04
2013-3-23,43.2,33.2,26.4,27.5,24.3,22.2,85,71,47,30.01,29.91,21,8,27,0.02
2013-3-24,41.0,31.9,21.2,29.2,22.9,18.1,90,70,52,30.02,29.70,20,5,20,0.00
2013-3-25,45.1,35.7,30.9,33.3,27.3,23.9,84,72,58,29.74,29.60,20,8,23,0.00
2013-3-26,50.9,39.1,30.0,32.2,28.1,23.7,86,67,40,29.94,29.74,19,6,22,0.00
2013-3-27,44.6,35.8,29.8,34.9,29.6,22.8,93,78,60,30.05,29.93,24,7,26,0.02
2013-3-28,44.4,37.1,32.5,35.8,31.8,27.3,93,82,53,30.19,30.04,16,5,18,0.02
2013-3-29,54.9,40.3,29.3,35.4,31.2,25.3,90,72,41,30.19,30.13,26,5,26,0.00
2013-3-30,54.5,38.9,23.7,37.6,26.6,21.2,92,65,34,30.20,30.00,18,4,22,0.00
2013-3-31,61.5,45.5,35.4,40.7,31.6,23.2,90,61,35,30.00,29.58,33,9,34,0.00
2013-4-1,42.8,34.3,26.4,40.1,24.7,15.6,91,69,46,29.96,29.56,32,12,36,0.05
2013-4-2,36.3,29.0,23.9,23.0,17.2,14.6,70,61,46,30.11,29.95,32,11,36,0.00
2013-4-3,38.8,30.7,25.5,18.8,16.6,14.3,67,56,39,30.37,30.10,30,11,36,0.00
2013-4-4,54.3,36.1,21.6,25.2,17.7,9.6,77,52,19,30.33,29.90,23,7,28,0.00
2013-4-5,43.5,35.7,28.9,28.9,21.6,15.7,72,57,45,30.15,29.87,24,8,28,0.00
2013-4-6,51.4,36.1,17.2,26.5,20.4,12.1,83,55,29,30.29,29.97,15,4,20,0.00
2013-4-7,67.6,53.7,40.1,44.9,33.7,22.5,70,48,33,30.04,29.69,39,16,53,0.00
2013-4-8,61.3,45.6,28.2,50.3,36.2,24.0,90,71,45,30.09,29.74,23,6,33,0.24
2013-4-9,61.9,49.3,44.4,47.9,43.9,40.5,95,82,56,30.11,29.78,18,7,25,0.67
2013-4-10,45.7,42.7,38.5,44.3,41.3,36.0,96,95,91,30.03,29.83,22,7,24,0.59
2013-4-11,38.8,34.4,31.8,36.1,31.7,29.4,93,90,78,30.09,29.87,19,3,26,0.45
2013-4-12,47.8,38.3,32.9,46.5,36.2,30.5,96,92,81,29.88,29.48,39,10,39,0.51
2013-4-13,44.1,40.1,37.6,37.0,34.9,33.3,88,82,69,29.92,29.75,32,12,38,0.00
2013-4-14,49.1,40.5,33.6,34.0,30.0,27.1,87,67,51,30.15,29.92,20,6,25,0.00
2013-4-15,72.5,55.5,36.5,50.5,40.7,28.2,77,59,41,30.11,29.97,21,8,28,0.00
2013-4-16,63.3,56.1,44.4,55.6,48.6,38.2,94,77,59,30.23,29.94,29,11,42,0.10
2013-4-17,59.9,46.3,30.9,41.9,34.5,28.4,92,66,41,30.34,30.17,22,5,24,0.00
2013-4-18,83.5,63.6,45.0,61.1,49.5,31.7,76,61,45,30.19,29.67,36,16,41,0.00
2013-4-19,71.6,56.3,41.2,59.9,46.3,30.1,86,69,60,29.75,29.37,44,17,48,0.07
2013-4-20,41.2,36.4,30.0,32.4,26.8,21.0,87,69,53,30.39,29.74,32,12,46,0.04
2013-4-21,49.8,36.1,21.9,32.0,23.4,17.5,85,61,45,30.65,30.39,20,3,20,0.00
2013-4-22,65.1,47.4,29.8,34.7,27.5,18.1,72,48,26,30.54,30.29,18,5,23,0.00
2013-4-23,70.3,53.6,38.1,39.0,33.5,25.8,69,48,29,30.29,29.90,15,4,18,0.00
2013-4-24,62.2,51.9,36.5,54.1,42.5,32.1,93,72,43,30.03,29.63,25,11,33,0.49
2013-4-25,57.2,43.0,30.9,39.2,33.8,28.1,91,73,41,30.30,30.03,22,8,27,0.02
2013-4-26,58.3,44.8,32.2,38.9,31.9,26.0,92,64,37,30.46,30.30,15,2,18,0.02
2013-4-27,74.5,53.7,31.8,40.9,34.9,26.0,85,53,24,30.43,30.21,13,2,17,0.00
2013-4-28,73.8,58.3,42.6,49.3,41.7,32.8,78,57,30,30.21,30.00,30,10,33,0.04
2013-4-29,63.7,57.4,50.5,53.2,50.2,46.0,89,77,68,30.05,29.96,19,6,24,0.08
2013-4-30,78.6,64.2,54.7,58.4,52.9,48.9,89,68,44,30.21,30.05,19,6,26,0.00
2013-5-1,80.4,65.7,54.7,57.6,50.2,39.3,78,59,40,30.33,30.21,18,5,21,0.00
2013-5-2,79.5,64.4,46.0,48.7,42.2,38.0,80,47,27,30.41,30.25,20,5,22,0.00
2013-5-3,79.7,65.8,48.0,52.4,44.7,38.6,74,48,29,30.30,30.19,20,6,22,0.00
2013-5-4,74.8,62.7,46.6,46.6,42.8,36.4,80,51,31,30.28,30.14,23,5,23,0.00
2013-5-5,78.4,62.5,43.7,51.3,44.5,39.5,86,55,33,30.21,30.09,18,3,22,0.00
2013-5-6,77.4,60.2,40.1,45.7,39.4,34.0,87,51,22,30.17,30.05,16,3,27,0.00
2013-5-7,80.8,63.2,44.4,57.0,48.7,39.0,88,62,36,30.13,30.03,18,3,22,0.00
2013-5-8,72.0,62.0,52.0,61.1,54.4,46.6,92,77,58,30.06,29.96,12,2,17,0.10
2013-5-9,75.0,61.3,53.4,62.5,56.0,49.0,95,84,62,29.99,29.91,13,2,17,0.10
2013-5-10,77.2,59.0,46.6,63.8,54.2,44.7,94,85,57,29.97,29.73,23,5,34,0.23
2013-5-11,59.2,51.0,45.3,57.2,47.3,42.0,94,87,72,29.80,29.69,30,9,33,0.06
2013-5-12,49.8,42.9,36.5,46.8,35.1,28.9,91,75,54,29.96,29.72,28,10,38,0.12
2013-5-13,50.2,40.6,33.3,38.6,32.5,28.9,85,73,57,30.15,29.95,23,6,24,0.02
2013-5-14,60.4,46.6,30.0,43.3,33.6,27.2,93,64,35,30.16,29.93,18,4,23,0.00
2013-5-15,78.6,62.0,48.7,60.2,47.5,39.7,80,61,42,29.93,29.56,37,8,47,0.00
2013-5-16,75.4,61.2,46.8,52.5,43.8,32.6,87,57,26,30.05,29.77,32,7,36,0.00
2013-5-17,69.1,53.8,36.9,47.4,40.7,33.3,89,63,41,30.24,30.05,12,2,17,0.00
2013-5-18,75.0,59.5,41.7,50.9,44.4,37.7,89,60,36,30.24,30.13,19,5,20,0.00
2013-5-19,84.0,67.9,50.2,62.8,55.8,43.7,89,67,44,30.14,29.99,14,3,20,0.00
2013-5-20,90.1,74.6,58.6,68.3,62.2,54.8,91,68,41,30.06,29.89,23,2,33,0.00
2013-5-21,88.5,73.4,61.2,71.3,63.2,56.0,91,72,48,29.97,29.78,18,5,26,0.02
2013-5-22,88.5,72.5,57.4,67.7,61.5,55.4,94,71,45,29.83,29.68,21,5,28,0.00
2013-5-23,76.3,62.6,43.0,63.6,56.0,41.1,93,80,60,29.97,29.73,25,9,29,0.21
2013-5-24,52.5,43.0,38.3,40.7,36.6,34.4,94,79,55,30.25,29.97,26,11,28,0.18
2013-5-25,59.7,48.1,36.3,38.8,35.6,31.6,90,64,42,30.29,30.21,24,6,30,0.00
2013-5-26,65.3,51.6,38.3,40.1,34.8,28.8,83,56,31,30.26,30.19,22,6,26,0.08
2013-5-27,75.0,55.4,33.8,50.3,38.9,31.1,92,60,29,30.29,30.14,9,1,14,0.00
2013-5-28,65.1,57.1,47.8,61.8,53.0,40.4,96,86,65,30.17,29.93,17,4,26,1.20
2013-5-29,80.4,69.6,63.0,66.6,62.4,57.9,96,79,55,30.05,29.90,28,7,32,0.51
2013-5-30,85.8,73.2,58.8,68.9,63.1,55.6,91,72,53,30.14,30.05,22,5,24,0.00
2013-5-31,88.3,76.3,62.8,67.8,64.0,60.5,92,68,46,30.09,29.97,24,5,26,0.02
2013-6-1,86.0,72.6,64.8,69.6,65.5,61.8,94,80,56,29.99,29.81,32,8,34,0.98
2013-6-2,74.5,67.1,53.4,65.9,60.9,47.8,96,82,62,29.94,29.72,33,11,42,1.15
2013-6-3,67.1,54.9,45.3,49.4,45.4,41.1,88,72,50,30.07,29.93,19,5,20,0.00
2013-6-4,69.4,55.9,43.5,47.0,43.0,38.5,91,65,34,30.20,30.07,14,3,19,0.00
2013-6-5,72.1,57.4,45.0,53.3,45.7,39.7,93,68,43,30.24,30.09,18,4,21,0.00
2013-6-6,60.1,55.6,50.2,58.5,51.7,41.0,95,88,58,30.09,29.86,18,6,22,0.93
2013-6-7,60.4,56.2,52.2,57.2,54.5,51.0,97,94,88,29.90,29.85,11,2,14,0.02
2013-6-8,64.8,58.7,55.2,60.1,55.7,52.6,97,90,76,30.10,29.86,15,3,20,0.04
2013-6-9,78.6,64.6,51.6,60.1,55.5,49.6,94,74,48,30.22,30.10,8,2,12,0.00
2013-6-10,72.7,65.4,61.2,68.2,61.5,55.6,96,87,77,30.13,29.73,20,6,24,0.25
2013-6-11,73.2,65.3,58.8,63.2,60.3,55.4,96,85,65,29.89,29.69,20,6,25,0.12
2013-6-12,80.1,66.9,52.2,61.4,56.7,50.1,95,72,45,29.96,29.79,10,1,13,0.00
2013-6-13,65.7,61.2,56.7,61.0,58.1,54.4,96,90,78,29.83,29.55,22,5,28,0.86
2013-6-14,75.0,62.6,52.0,61.5,56.5,50.5,96,82,56,30.03,29.82,14,3,20,0.02
2013-6-15,73.4,62.5,47.7,56.5,51.7,46.0,95,70,39,30.09,29.98,18,3,19,0.00
2013-6-16,79.3,67.0,61.0,67.8,60.3,54.7,92,80,60,29.98,29.75,17,6,26,0.16
2013-6-17,79.9,69.2,58.8,65.5,60.1,55.6,94,74,49,29.97,29.84,20,3,24,0.00
2013-6-18,72.1,62.5,52.3,57.4,52.0,46.5,91,70,41,30.06,29.92,17,3,21,0.00
2013-6-19,70.0,59.1,47.8,50.0,45.8,40.0,93,65,35,30.22,30.06,13,2,18,0.00
2013-6-20,78.4,61.0,42.4,54.7,47.6,40.3,93,66,35,30.27,30.21,14,1,18,0.00
2013-6-21,86.0,66.9,46.4,60.1,52.0,44.1,93,64,31,30.29,30.18,11,0,13,0.00
2013-6-22,87.1,74.1,58.1,68.8,62.8,53.8,88,69,54,30.19,30.03,24,5,30,0.00
2013-6-23,89.4,78.0,68.2,71.3,66.4,62.9,89,69,43,30.10,30.02,26,6,29,0.00
2013-6-24,86.4,77.0,70.5,70.9,66.0,62.3,83,69,52,30.09,29.98,23,6,28,0.00
2013-6-25,81.9,73.3,69.1,71.5,66.2,62.5,89,78,66,29.99,29.84,22,6,26,0.70
2013-6-26,83.1,73.6,66.7,70.9,65.8,62.0,93,78,59,29.88,29.83,19,5,25,0.00
2013-6-27,78.1,68.9,61.5,71.8,65.2,59.2,94,88,73,29.85,29.69,21,0,26,0.67
2013-6-28,70.7,65.2,61.3,67.6,63.6,60.2,96,95,88,29.69,29.54,8,0,13,1.71
2013-6-29,80.6,67.5,61.0,66.0,61.9,58.1,96,83,58,29.75,29.54,11,2,17,0.02
2013-6-30,78.6,69.3,58.8,66.7,61.5,57.1,95,77,59,29.97,29.74,13,2,17,0.00
2013-7-1,70.7,65.0,58.8,63.1,60.2,56.5,92,85,75,30.11,29.96,17,4,20,0.04
2013-7-2,73.9,65.6,58.1,66.7,61.5,56.1,93,87,77,30.13,30.06,12,2,16,0.00
2013-7-3,89.4,74.1,62.2,75.0,68.3,60.8,96,83,56,30.18,30.10,18,2,18,0.13
2013-7-4,85.6,74.7,68.7,72.9,69.0,67.2,96,84,59,30.20,30.14,12,2,14,0.04
2013-7-5,87.1,76.6,68.7,75.2,69.4,65.0,93,79,64,30.18,30.11,15,4,15,0.00
2013-7-6,90.7,77.5,64.8,74.9,68.7,62.1,93,76,55,30.17,30.04,10,1,10,0.00
2013-7-7,82.9,75.3,68.7,72.3,68.2,65.0,93,79,65,30.07,29.96,20,6,20,0.00
2013-7-8,87.6,75.9,68.2,74.1,68.6,65.1,92,79,59,30.07,30.00,15,3,15,0.00
2013-7-9,85.8,75.4,69.1,74.4,69.4,65.9,92,82,67,30.06,29.91,10,2,11,0.00
2013-7-10,87.1,76.3,69.3,76.0,70.1,61.3,93,82,67,29.92,29.71,21,8,37,0.00
2013-7-11,79.5,69.8,57.4,63.6,58.9,52.6,90,69,50,30.02,29.86,10,1,13,0.00
2013-7-12,75.7,66.9,56.5,66.8,61.8,54.8,95,84,70,30.17,30.02,10,1,12,0.00
2013-7-13,85.6,71.7,56.5,70.0,64.4,55.0,96,80,56,30.23,30.15,13,1,18,0.00
2013-7-14,91.0,77.5,63.1,74.3,68.9,61.7,95,77,51,30.29,30.23,13,1,17,0.00
2013-7-15,90.9,79.1,67.8,76.7,69.2,58.4,95,74,39,30.30,30.22,14,1,15,0.00
2013-7-16,91.6,79.5,66.7,76.7,68.8,63.5,95,73,44,30.28,30.21,13,1,17,0.00
2013-7-17,93.0,82.7,74.5,79.6,75.2,70.4,94,79,53,30.23,30.10,17,3,22,0.00
2013-7-18,93.0,81.8,73.6,79.6,74.6,71.6,95,80,58,30.11,29.95,19,2,24,0.00
2013-7-19,90.1,81.9,67.1,77.1,72.5,64.5,95,74,56,29.95,29.73,28,8,46,2.88
2013-7-20,85.5,73.9,64.9,69.5,65.3,59.1,96,77,46,29.90,29.72,20,3,34,0.75
2013-7-21,79.9,70.3,61.5,65.0,61.6,57.9,92,75,55,30.00,29.89,12,1,14,0.00
2013-7-22,79.9,68.9,57.0,68.1,62.2,55.3,95,80,62,30.00,29.77,13,1,16,0.00
2013-7-23,82.6,71.6,61.3,71.2,65.4,56.8,95,82,58,29.78,29.62,20,3,31,0.14
2013-7-24,69.4,61.2,52.5,57.0,51.4,48.7,89,71,50,30.03,29.72,18,4,23,0.00
2013-7-25,76.3,62.2,47.8,59.4,52.8,46.2,94,74,48,30.12,30.02,8,0,12,0.00
2013-7-26,79.9,63.9,47.8,61.0,54.1,46.0,94,73,47,30.13,29.99,8,0,14,0.00
2013-7-27,77.9,67.0,56.1,65.9,61.0,52.6,94,82,61,30.00,29.79,17,1,19,0.35
2013-7-28,75.0,67.0,59.7,64.7,57.6,51.8,95,74,49,29.97,29.78,17,2,20,0.00
2013-7-29,71.4,63.5,56.8,61.5,56.2,51.6,93,78,60,30.15,29.96,16,2,20,0.04
2013-7-30,78.6,65.5,54.1,61.8,57.4,51.8,94,76,53,30.19,30.14,12,1,17,0.00
2013-7-31,80.2,67.8,54.0,65.3,59.4,52.2,95,77,44,30.15,29.92,10,1,15,0.00
2013-8-1,79.7,68.4,62.4,68.7,63.2,59.8,95,84,56,29.92,29.77,17,2,25,0.49
2013-8-2,79.7,67.1,54.3,69.4,59.9,52.6,96,80,54,29.88,29.82,24,3,31,0.22
2013-8-3,80.2,67.7,58.1,63.9,57.9,53.5,95,73,43,29.95,29.83,17,2,26,0.02
2013-8-4,73.2,62.6,50.4,59.9,53.3,46.9,92,73,51,30.07,29.94,21,4,24,0.00
2013-8-5,77.5,61.5,46.2,61.7,51.6,44.3,94,73,44,30.10,30.00,10,1,13,0.00
2013-8-6,82.6,67.1,52.2,60.7,56.3,49.2,94,71,40,30.04,29.95,8,0,13,0.00
2013-8-7,84.0,73.1,63.1,69.6,64.1,58.6,87,74,60,29.96,29.84,20,4,27,0.00
2013-8-8,84.7,73.5,65.1,73.5,68.3,63.3,95,84,67,29.95,29.88,13,1,16,1.27
2013-8-9,80.8,69.8,62.8,67.9,63.4,57.8,96,82,50,29.93,29.87,18,2,19,0.49
2013-8-10,74.1,65.5,55.2,61.2,55.0,51.4,91,71,49,30.09,29.93,15,2,19,0.00
2013-8-11,79.5,64.3,49.3,61.1,53.8,47.3,94,72,44,30.13,30.03,8,1,13,0.00
2013-8-12,78.6,68.3,58.5,65.1,61.0,56.2,93,79,56,30.05,29.85,18,2,20,0.00
2013-8-13,71.4,64.7,55.0,66.7,57.7,47.0,96,79,56,29.89,29.75,24,5,32,0.37
2013-8-14,71.8,60.3,52.7,54.0,50.0,46.6,89,71,43,30.09,29.87,23,4,31,0.00
2013-8-15,75.7,61.7,47.5,58.6,50.9,45.0,93,70,46,30.12,30.07,20,2,27,0.00
2013-8-16,80.4,64.0,48.9,62.2,54.3,46.7,94,73,48,30.20,30.10,10,0,12,0.00
2013-8-17,82.6,65.7,50.9,63.0,54.5,49.2,94,71,40,30.27,30.19,8,1,12,0.00
2013-8-18,85.3,67.6,51.4,65.9,57.5,48.6,92,73,45,30.26,30.12,8,0,9,0.00
2013-8-19,84.4,69.3,53.2,67.7,59.5,50.4,93,73,51,30.13,30.05,9,2,12,0.00
2013-8-20,84.0,71.9,57.4,70.5,62.2,54.8,93,74,50,30.14,30.07,15,2,22,0.00
2013-8-21,86.7,73.2,57.4,69.7,63.0,54.7,92,73,47,30.18,30.02,13,2,18,0.00
2013-8-22,85.3,71.7,60.6,75.4,65.1,57.1,93,80,63,30.04,29.92,13,2,17,0.38
2013-8-23,76.1,64.6,51.1,62.6,54.6,48.5,93,73,44,30.19,30.00,15,2,15,0.00
2013-8-24,77.7,62.2,46.2,62.2,53.0,43.8,93,75,47,30.36,30.19,9,1,10,0.00
2013-8-25,83.1,66.3,46.0,66.0,55.3,43.3,93,71,44,30.34,30.14,14,4,14,0.00
2013-8-26,79.9,71.1,67.8,73.2,66.9,61.5,94,87,75,30.16,29.94,16,4,21,0.69
2013-8-27,85.3,74.6,67.6,74.8,70.3,66.0,97,87,68,29.94,29.87,8,1,13,0.71
2013-8-28,85.1,74.2,66.4,74.1,69.8,63.9,97,87,68,29.96,29.85,6,0,11,0.17
2013-8-29,86.2,73.0,61.5,74.3,65.9,60.4,96,80,53,30.05,29.96,10,0,11,0.02
2013-8-30,84.9,73.6,61.3,74.3,67.3,59.9,97,82,56,30.01,29.74,14,1,14,0.00
2013-8-31,82.6,73.4,66.4,71.6,68.4,63.6,94,85,67,29.85,29.71,12,2,21,0.00
2013-9-1,83.3,72.0,64.9,74.3,68.2,63.5,97,88,68,29.84,29.75,8,0,11,0.26
2013-9-2,81.0,70.5,62.2,75.0,65.7,55.3,97,86,67,29.80,29.70,19,3,32,0.04
2013-9-3,69.1,62.2,58.1,60.0,56.5,53.7,88,82,71,29.96,29.79,11,1,18,0.00
2013-9-4,77.2,66.5,54.1,63.1,57.4,50.3,92,75,43,29.99,29.94,23,3,32,0.04
2013-9-5,66.0,57.4,44.2,61.0,48.7,41.1,95,75,46,30.23,29.98,18,2,18,0.00
2013-9-6,71.4,56.0,39.4,54.3,45.9,37.5,94,72,42,30.26,30.09,13,1,14,0.00
2013-9-7,65.8,59.9,51.4,63.7,56.4,47.9,94,89,76,30.09,29.86,24,2,24,0.29
2013-9-8,69.4,62.2,46.9,65.2,53.2,44.2,96,74,48,30.10,29.86,15,2,25,0.02
2013-9-9,74.1,59.4,42.4,64.0,52.6,40.8,94,80,57,30.11,29.93,15,2,23,0.00
2013-9-10,87.6,77.9,68.5,74.2,69.6,64.1,91,77,60,30.00,29.88,32,7,35,0.08
2013-9-11,88.2,79.3,71.2,73.5,70.9,67.6,91,76,57,30.02,29.89,18,4,24,0.27
2013-9-12,75.0,68.0,57.9,69.1,64.5,54.7,93,89,75,29.94,29.74,17,1,22,0.36
2013-9-13,58.8,53.2,49.3,55.9,49.1,44.3,91,86,76,30.04,29.78,18,3,18,0.02
2013-9-14,66.7,53.9,45.1,50.5,43.9,37.6,89,71,36,30.11,30.01,10,1,15,0.00
2013-9-15,68.5,57.2,45.1,56.3,50.0,42.0,90,78,58,30.12,30.03,14,2,19,0.09
2013-9-16,56.8,49.5,37.8,52.5,46.4,35.6,95,89,70,30.35,30.06,14,1,21,0.04
2013-9-17,67.3,49.3,32.9,48.8,41.5,31.3,95,77,46,30.44,30.25,8,1,12,0.02
2013-9-18,76.8,56.3,37.9,53.0,45.9,36.0,94,72,39,30.25,30.09,10,1,12,0.00
2013-9-19,79.9,60.9,45.0,61.9,53.3,43.1,95,78,51,30.10,29.99,10,2,16,0.00
2013-9-20,82.9,68.8,51.6,68.7,61.5,49.6,95,79,61,30.00,29.72,15,5,21,0.00
2013-9-21,73.4,62.1,52.3,66.1,59.7,49.7,96,92,74,29.75,29.62,17,3,33,2.42
2013-9-22,55.6,51.2,47.1,49.7,45.3,40.9,93,81,65,30.03,29.75,14,3,24,0.00
2013-9-23,62.2,50.7,40.5,47.7,42.2,37.6,93,74,49,30.14,30.03,14,1,14,0.00
2013-9-24,66.0,49.8,35.8,53.2,42.4,33.9,95,78,41,30.13,30.00,11,1,12,0.00
2013-9-25,72.5,52.2,36.5,56.3,44.2,34.6,94,77,44,30.00,29.94,10,0,13,0.00
2013-9-26,72.5,54.4,38.3,55.7,46.6,36.4,94,77,52,30.14,29.98,9,0,12,0.00
2013-9-27,72.5,57.1,44.1,58.2,50.9,42.4,95,81,60,30.24,30.13,8,0,10,0.00
2013-9-28,79.3,60.2,43.0,59.3,51.6,41.3,95,76,44,30.25,30.13,10,1,14,0.00
2013-9-29,77.7,61.4,46.6,58.9,52.8,43.9,92,75,50,30.13,29.97,14,2,19,0.00
2013-9-30,75.7,64.1,55.6,63.1,58.5,53.3,93,83,63,29.99,29.94,10,2,17,0.00
2013-10-1,74.5,65.3,54.5,64.5,59.8,53.1,95,83,63,30.01,29.90,17,3,20,0.00
2013-10-2,79.2,66.7,49.6,64.1,60.6,47.4,92,81,57,30.09,29.91,11,2,15,0.00
2013-10-3,71.4,58.2,41.9,56.2,49.1,40.5,95,74,48,30.10,29.99,6,0,8,0.00
2013-10-4,71.8,64.5,59.5,69.0,62.3,54.1,96,92,79,30.05,29.97,6,0,10,0.78
2013-10-5,65.3,60.3,57.9,62.5,58.4,55.6,97,93,89,30.08,29.98,12,1,12,0.59
2013-10-6,84.9,68.2,57.7,73.2,64.0,55.7,97,87,64,29.98,29.67,17,2,18,0.69
2013-10-7,74.8,59.0,47.8,65.0,52.4,44.0,94,80,59,30.02,29.63,22,4,26,0.51
2013-10-8,69.1,53.0,41.2,54.0,45.6,39.6,95,78,47,30.31,30.03,6,0,10,0.00
2013-10-9,72.1,53.3,37.2,52.6,44.1,35.3,94,74,37,30.35,30.27,7,0,12,0.00
2013-10-10,72.9,52.8,38.5,52.5,43.6,36.6,94,74,35,30.27,30.14,13,1,14,0.00
2013-10-11,75.7,54.2,40.8,57.1,46.2,38.7,94,77,40,30.17,30.11,12,1,15,0.00
2013-10-12,78.4,58.1,38.8,56.9,45.5,37.0,94,67,33,30.18,30.11,10,2,14,0.00
2013-10-13,68.4,60.6,52.7,61.4,53.2,40.4,94,77,53,30.28,30.15,17,2,21,0.35
2013-10-14,67.6,55.0,41.9,55.7,48.4,39.5,94,80,51,30.36,30.28,13,2,20,0.08
2013-10-15,70.5,54.7,40.1,58.5,49.4,38.2,95,83,60,30.30,29.93,12,2,16,0.00
2013-10-16,70.9,61.9,53.2,61.4,56.4,47.8,92,82,69,29.93,29.76,22,8,26,0.43
2013-10-17,63.0,54.5,48.7,54.3,49.0,44.7,93,82,66,29.88,29.70,11,2,15,0.35
2013-10-18,62.4,52.5,45.7,48.7,44.2,39.8,93,75,45,29.90,29.74,22,5,26,0.00
2013-10-19,59.2,50.7,42.4,50.5,46.1,40.0,94,85,68,29.88,29.66,15,3,21,0.30
2013-10-20,57.7,46.9,39.0,44.8,40.8,35.2,92,80,58,29.97,29.78,15,3,17,0.04
2013-10-21,65.5,54.5,45.3,48.0,43.1,40.4,92,68,41,29.96,29.79,34,8,34,0.17
2013-10-22,51.6,44.9,39.7,47.0,34.4,28.1,92,68,48,29.86,29.76,27,6,29,0.20
2013-10-23,47.8,39.9,32.9,41.0,34.2,29.6,89,80,65,29.81,29.71,17,2,17,0.06
2013-10-24,48.4,39.2,32.5,36.2,33.0,29.0,89,79,58,30.01,29.78,22,5,27,0.00
2013-10-25,49.6,41.2,33.8,42.8,35.0,31.4,93,79,61,30.17,30.01,18,3,22,0.00
2013-10-26,44.6,42.5,39.0,40.3,36.1,31.5,90,78,64,30.09,29.76,36,10,47,0.22
2013-10-27,47.5,40.8,35.8,39.5,35.3,30.4,92,81,67,30.03,29.81,14,3,19,0.00
2013-10-28,49.8,41.1,27.1,39.4,31.3,20.7,85,69,39,30.37,30.00,14,3,22,0.00
2013-10-29,50.2,37.7,25.5,34.3,29.3,21.9,90,73,47,30.44,30.27,12,1,18,0.00
2013-10-30,62.2,45.9,36.5,43.2,38.1,33.3,90,76,47,30.27,30.07,8,1,14,0.02
2013-10-31,66.4,56.1,43.0,59.5,51.6,37.8,94,85,72,30.06,29.34,31,10,38,0.71
2013-11-1,62.8,54.9,46.9,58.2,48.7,42.2,92,80,69,29.66,29.15,40,14,51,0.23
2013-11-2,48.2,43.4,36.7,44.8,40.5,33.1,94,89,83,30.01,29.60,16,4,22,0.18
2013-11-3,40.6,32.7,22.8,32.9,24.9,19.5,88,74,55,30.50,30.01,14,3,16,0.00
2013-11-4,41.5,32.4,21.0,30.8,22.8,18.5,91,70,49,30.60,30.39,17,4,22,0.00
2013-11-5,61.7,45.9,29.8,40.0,31.5,20.5,73,58,42,30.41,30.29,14,5,19,0.00
2013-11-6,64.8,55.3,45.1,54.8,44.0,32.3,92,67,54,30.29,29.79,24,8,30,0.39
2013-11-7,55.2,42.8,37.9,52.9,36.1,29.6,92,77,66,29.99,29.79,26,10,29,0.12
2013-11-8,42.4,37.9,32.9,33.4,30.2,28.6,87,74,63,30.22,29.95,25,7,28,0.00
2013-11-9,50.4,43.1,33.1,45.2,33.4,25.6,86,70,51,30.20,29.77,24,7,31,0.06
2013-11-10,49.6,43.3,37.8,41.4,34.6,29.9,84,72,64,30.17,29.77,33,11,44,0.04
2013-11-11,44.6,37.1,30.4,38.9,32.0,23.7,93,82,71,30.16,29.92,25,7,38,0.29
2013-11-12,34.3,29.2,26.1,24.9,20.4,15.7,82,70,55,30.38,30.11,26,8,31,0.00
2013-11-13,41.4,33.0,24.1,28.4,23.4,17.5,82,68,50,30.39,30.06,32,8,39,8.73
2013-11-14,49.1,43.3,38.1,33.5,29.0,24.7,74,58,41,30.08,29.97,37,14,40,0.00
2013-11-15,53.4,46.3,41.4,35.4,30.8,26.8,73,55,41,30.09,30.01,27,8,28,0.00
2013-11-16,61.3,49.6,36.0,43.6,38.0,29.6,79,65,51,30.20,29.96,17,4,20,0.00
2013-11-17,64.2,58.2,51.6,56.0,51.2,42.9,88,77,69,29.96,29.33,27,13,46,0.41
2013-11-18,55.2,44.6,35.8,47.1,34.9,27.5,81,69,59,29.92,29.37,34,16,47,0.02
2013-11-19,39.2,33.1,21.9,27.5,23.6,17.8,85,68,55,30.43,29.92,24,8,32,0.00
2013-11-20,42.6,29.9,18.9,29.2,21.7,15.8,89,73,52,30.53,30.37,18,6,24,0.00
2013-11-21,45.0,37.7,25.0,36.9,27.9,16.7,92,69,52,30.37,30.21,17,6,19,0.10
2013-11-22,46.6,41.3,31.1,45.2,39.0,26.2,96,91,80,30.20,29.99,31,5,34,0.29
2013-11-23,33.1,27.5,18.7,26.1,19.2,7.9,83,71,54,30.21,30.02,31,12,41,0.00
2013-11-24,24.6,20.0,16.0,16.2,12.4,8.5,81,72,57,30.40,30.20,26,10,32,0.02
2013-11-25,36.1,28.5,16.3,28.6,17.3,10.3,82,64,44,30.35,30.06,29,10,40,0.00
2013-11-26,34.5,32.6,31.5,31.0,29.9,28.4,94,90,79,30.10,29.80,20,2,28,0.06
2013-11-27,31.8,29.5,22.8,30.4,25.7,16.7,95,86,71,29.92,29.67,24,5,30,0.02
2013-11-28,29.8,23.1,18.1,19.9,16.1,13.1,87,75,55,30.39,29.93,23,4,26,0.00
2013-11-29,34.2,22.4,12.6,24.4,15.4,6.5,90,76,50,30.69,30.38,6,0,13,0.14
2013-11-30,35.4,25.2,9.1,25.6,16.8,4.6,84,71,60,30.66,30.16,20,7,24,0.02
2013-12-1,41.2,36.4,31.8,32.3,29.1,25.1,81,75,65,30.16,29.91,17,4,17,0.02
2013-12-2,37.4,34.1,24.6,33.8,30.4,22.4,91,86,79,29.91,29.84,10,1,10,0.00
2013-12-3,43.3,30.4,18.9,33.8,25.3,16.8,92,82,58,29.96,29.88,12,1,13,0.00
2013-12-4,51.8,40.1,32.7,42.9,35.3,28.4,92,83,69,29.97,29.80,17,4,17,0.02
2013-12-5,60.3,50.6,37.0,52.9,43.7,32.0,84,77,67,30.03,29.69,25,11,34,0.02
2013-12-6,36.3,32.6,29.5,31.9,26.0,21.5,90,77,68,30.23,30.00,12,6,18,0.02
2013-12-7,29.5,26.3,21.4,21.8,17.0,11.0,80,68,57,30.53,30.22,23,8,26,0.02
2013-12-8,29.1,23.4,15.6,21.5,15.6,10.0,84,72,60,30.53,30.12,20,5,23,0.00
2013-12-9,37.8,31.9,26.4,35.7,27.7,20.9,93,84,74,30.11,29.81,34,11,37,0.00
2013-12-10,28.8,23.3,20.5,21.5,13.7,9.2,88,67,53,30.07,29.90,27,12,34,0.02
2013-12-11,25.9,21.0,15.3,17.5,12.1,8.2,80,68,61,30.27,30.07,26,12,32,0.00
2013-12-12,21.0,16.6,10.8,16.3,8.0,3.5,85,69,54,30.32,30.06,25,10,33,0.00
2013-12-13,25.5,18.5,12.7,19.6,13.1,7.7,87,79,67,30.38,30.03,22,6,26,0.00
2013-12-14,18.0,14.3,11.7,15.4,10.6,7.0,90,85,78,30.39,29.73,26,10,31,0.00
2013-12-15,25.0,20.7,16.9,21.4,16.8,9.7,92,85,71,29.86,29.63,25,8,28,0.00
2013-12-16,24.4,13.3,1.2,12.1,5.8,-4.2,81,72,55,30.15,29.86,20,4,26,0.00
2013-12-17,28.2,18.2,-0.8,24.5,13.8,-5.0,89,83,72,30.11,29.89,13,3,25,0.00
2013-12-18,33.1,27.7,21.9,24.3,21.7,18.6,89,78,65,30.06,29.91,20,7,29,0.02
2013-12-19,42.1,35.1,27.1,32.7,27.9,19.0,88,75,66,30.02,29.86,28,6,28,0.13
2013-12-20,41.5,37.5,34.0,40.2,35.8,31.1,95,94,88,29.99,29.76,15,2,15,0.63
2013-12-21,49.3,37.2,31.1,48.1,36.1,29.8,96,96,94,29.88,29.69,19,3,21,0.89
2013-12-22,39.6,33.7,30.7,38.5,32.5,29.5,96,95,94,29.99,29.61,13,1,15,1.02
2013-12-23,37.8,32.3,24.1,36.0,29.3,18.2,94,89,76,30.28,29.97,18,5,20,0.00
2013-12-24,25.3,19.6,9.7,20.8,15.7,5.2,90,85,79,30.49,30.20,17,3,22,0.00
2013-12-25,26.8,12.7,-3.8,20.2,7.5,-7.3,87,80,71,30.50,30.17,7,1,11,0.00
2013-12-26,33.4,27.0,17.8,27.7,21.3,12.0,91,79,67,30.26,30.05,20,6,23,0.05
2013-12-27,35.4,27.9,17.2,29.8,23.2,11.5,90,82,66,30.25,30.04,15,4,23,0.02
2013-12-28,43.0,38.2,33.1,34.6,31.7,29.7,88,78,68,30.08,29.92,32,8,35,0.02
2013-12-29,46.2,39.9,25.9,35.8,30.9,19.6,90,71,49,29.92,29.62,24,8,32,0.00
2013-12-30,25.9,19.2,14.2,19.6,10.9,5.5,80,70,58,30.20,29.80,28,9,35,0.00
2013-12-31,21.6,17.7,12.9,18.6,10.5,4.0,89,74,60,30.21,29.93,30,10,36,0.00
2014-1-1,23.4,15.9,10.8,11.6,8.5,3.4,85,73,55,30.37,30.20,22,4,29,0.00
2014-1-2,13.8,9.9,5.2,10.1,6.2,1.3,86,85,84,30.27,29.96,17,5,27,0.00